[Date Prev][Date Next][Thread Prev][Thread Next] - [Date Index][Thread Index][Author Index]

2 Line ISS Keps 3-27



ISS
1 25544U 98067A   05086.47132463  .00055739  00000-0  44872-3 0  1077
2 25544 051.6427 319.0293 0005404 297.0364 123.5222 15.70352379362839
----
Via the sarex mailing list at AMSAT.ORG courtesy of AMSAT-NA.
To unsubscribe, send "unsubscribe sarex" to Majordomo@amsat.org



AMSAT Top AMSAT Home